Le nostre stazioni meteo in Italia

Pubblicità
Il mio iltempo24.it
Alghero, Italia (16520): Temperatura & dewpoint: 04.04.2020 03:00:00 - 10.04.2020 03:00:00 (CEST)Alghero, Italia (16520): velocità del vento: 04.04.2020 03:00:00 - 10.04.2020 03:00:00 (CEST)Alghero, Italia (16520): direzione del vento: 04.04.2020 03:00:00 - 10.04.2020 03:00:00 (CEST)Alghero, Italia (16520): reduced air pressure: 04.04.2020 03:00:00 - 10.04.2020 03:00:00 (CEST)Alghero, Italia (16520): visibility: 04.04.2020 03:00:00 - 10.04.2020 03:00:00 (CEST)Alghero, Italia (16520): precipitazioni: 04.04.2020 03:00:00 - 10.04.2020 03:00:00 (CEST)
Data & Tempo tt [°C] td [°C] ff [km/h] ff [kn] dd ppp [hPa] vv [km] rr [mm]
10.04.2020 03:00:00 8,0 7,0 4 2 NNE - 10 -
10.04.2020 02:00:00 8,3 7,7 4 2 - 1022,7 10 -
10.04.2020 01:00:00 10,0 10,0 2 1 NNE - 10 -
10.04.2020 00:00:00 11,0 9,0 4 2 - - 10 -
09.04.2020 23:00:00 11,1 9,8 4 2 - 1022,6 10 0,0
09.04.2020 22:00:00 14,0 11,0 5 3 NNE - 10 -
09.04.2020 21:00:00 15,0 12,0 9 5 NE - 10 -
09.04.2020 20:00:00 15,8 11,6 11 6 NE 1021,5 10 -
09.04.2020 19:00:00 18,0 10,0 15 8 NNE - 10 -
09.04.2020 18:00:00 21,0 8,0 15 8 N - 10 -
09.04.2020 17:00:00 21,6 4,4 9 5 N 1021,2 10 0,0
09.04.2020 16:00:00 22,0 11,0 15 8 - - 10 -
09.04.2020 15:00:00 21,0 11,0 16 9 ONO - 10 -
09.04.2020 14:00:00 20,7 8,6 15 8 ONO 1022,1 10 -
09.04.2020 13:00:00 22,0 4,0 11 6 NE - 10 -
09.04.2020 12:00:00 20,0 3,0 4 2 - - 10 -
09.04.2020 11:00:00 19,0 4,2 4 2 - 1023,1 10 0,0
09.04.2020 10:00:00 14,0 9,0 2 1 - - 10 -
09.04.2020 09:00:00 9,0 7,0 5 3 NNE - 10 -
09.04.2020 08:00:00 5,9 4,8 5 3 ENE 1022,8 10 -
09.04.2020 07:00:00 5,0 4,0 4 2 - - 10 -
09.04.2020 06:00:00 5,0 4,0 4 2 - - 10 -
09.04.2020 05:00:00 5,2 4,4 4 2 ENE 1022,5 10 0,0
09.04.2020 04:00:00 7,0 6,0 4 2 NNE - 10 -
09.04.2020 03:00:00 7,0 7,0 4 2 NO - 10 -
09.04.2020 02:00:00 8,0 8,0 5 3 E - 10 -
09.04.2020 01:00:00 10,0 8,0 5 3 ENE - 10 -
09.04.2020 00:00:00 11,0 9,0 4 2 N - 10 -
08.04.2020 23:00:00 11,9 9,2 4 2 NNE 1024,0 10 0,0
08.04.2020 22:00:00 14,0 10,0 5 3 NNE - 10 -
08.04.2020 21:00:00 14,0 8,0 5 3 ENE - 10 -
08.04.2020 20:00:00 15,3 8,9 13 7 NNE 1023,2 10 -
08.04.2020 19:00:00 18,0 10,0 18 10 NNE - 10 -
08.04.2020 18:00:00 21,0 7,0 11 6 N - 10 -
08.04.2020 17:00:00 21,4 7,2 15 8 N 1022,9 10 0,0
08.04.2020 16:00:00 22,0 6,0 11 6 - - 10 -
08.04.2020 15:00:00 23,0 3,0 15 8 NNE - 10 -
08.04.2020 14:00:00 21,5 7,0 13 7 O 1024,3 10 -
08.04.2020 13:00:00 22,0 3,0 9 5 - - 10 -
08.04.2020 12:00:00 20,0 7,0 9 5 ENE - 10 -
08.04.2020 11:00:00 18,7 6,9 8 4 NE 1025,9 10 0,0
08.04.2020 10:00:00 15,0 11,0 2 1 - - 10 -
08.04.2020 09:00:00 10,0 7,0 5 3 NE - 10 -
08.04.2020 08:00:00 6,3 4,6 4 2 NNE 1025,9 10 -
08.04.2020 07:00:00 4,0 3,0 2 1 - - 10 -
08.04.2020 06:00:00 - - - - - - - -
08.04.2020 05:00:00 5,3 4,1 4 2 - 1026,1 10 0,0
08.04.2020 04:00:00 6,0 5,0 2 1 - - 10 -
08.04.2020 03:00:00 7,0 5,0 4 2 - - 10 -
08.04.2020 02:00:00 7,9 6,5 4 2 - 1026,9 10 -
08.04.2020 01:00:00 9,0 7,0 4 2 NE - 10 -
08.04.2020 00:00:00 10,0 6,0 2 1 - - 10 -
07.04.2020 23:00:00 11,1 6,7 2 1 - 1026,8 10 0,0
07.04.2020 22:00:00 13,0 8,0 4 2 N - 10 -
07.04.2020 21:00:00 14,0 7,0 8 4 N - 10 -
07.04.2020 20:00:00 15,9 6,6 8 4 NNE 1025,9 10 -
07.04.2020 19:00:00 19,0 8,0 9 5 O - 10 -
07.04.2020 18:00:00 20,0 7,0 13 7 ONO - 10 -
07.04.2020 17:00:00 20,1 7,7 11 6 O 1025,5 10 0,0
07.04.2020 16:00:00 21,0 6,0 13 7 O - 10 -
07.04.2020 15:00:00 21,0 5,0 18 10 SSO - 10 -
07.04.2020 14:00:00 21,8 5,9 9 5 - 1026,6 10 -
07.04.2020 13:00:00 20,0 6,0 13 7 ONO - 10 -
07.04.2020 12:00:00 20,0 6,0 11 6 SSO - 10 -
07.04.2020 11:00:00 18,9 5,4 4 2 - 1026,9 10 0,0
07.04.2020 10:00:00 16,0 5,0 8 4 E - 10 -
07.04.2020 09:00:00 12,0 7,0 9 5 NE - 10 -
07.04.2020 08:00:00 9,8 4,4 4 2 - 1026,3 10 -
07.04.2020 07:00:00 9,0 4,0 15 8 NNE - 10 -
07.04.2020 06:00:00 9,0 5,0 11 6 N - 10 -
07.04.2020 05:00:00 8,4 5,4 9 5 NNE 1025,4 10 0,0
07.04.2020 04:00:00 8,0 4,0 9 5 NNE - 10 -
07.04.2020 03:00:00 8,0 6,0 8 4 NNE - 10 -
07.04.2020 02:00:00 8,3 7,2 4 2 - 1025,9 10 -
07.04.2020 01:00:00 10,0 9,0 4 2 - - 10 -
07.04.2020 00:00:00 11,0 9,0 5 3 NNE - 10 -
06.04.2020 23:00:00 10,1 8,0 8 4 NE 1025,9 10 0,0
06.04.2020 22:00:00 13,0 8,0 8 4 NNE - 10 -
06.04.2020 21:00:00 14,0 7,0 8 4 N - 10 -
06.04.2020 20:00:00 16,1 5,2 11 6 NNE 1024,3 10 -
06.04.2020 19:00:00 18,0 6,0 16 9 NNE - 10 -
06.04.2020 18:00:00 19,0 5,0 18 10 NNE - 10 -
06.04.2020 17:00:00 20,1 3,3 22 12 NNE 1023,4 10 0,0
06.04.2020 16:00:00 21,0 3,0 21 11 N - 10 -
06.04.2020 15:00:00 21,0 3,0 22 12 NNE - 10 -
06.04.2020 14:00:00 20,8 4,2 21 11 NE 1023,5 10 -
06.04.2020 13:00:00 20,0 5,0 21 11 NE - 10 -
06.04.2020 12:00:00 19,0 4,0 15 8 NNE - 10 -
06.04.2020 11:00:00 17,7 6,1 9 5 ENE 1023,8 10 0,0
06.04.2020 10:00:00 14,0 8,0 4 2 - - 10 -
06.04.2020 09:00:00 9,0 6,0 4 2 - - 10 -
06.04.2020 08:00:00 4,9 3,9 5 3 NNE 1022,7 10 -
06.04.2020 07:00:00 5,0 4,0 4 2 NNE - 10 -
06.04.2020 06:00:00 5,0 4,0 5 3 NNE - 10 -
06.04.2020 05:00:00 4,8 4,3 4 2 - 1021,9 10 0,0
06.04.2020 04:00:00 5,0 4,0 5 3 NNE - 10 -
06.04.2020 03:00:00 - - - - - - - -
06.04.2020 02:00:00 7,7 7,0 5 3 NNE 1021,7 - -
06.04.2020 01:00:00 8,0 7,0 2 1 - - 10 -
06.04.2020 00:00:00 8,0 7,0 9 5 NE - 10 -
05.04.2020 23:00:00 8,5 7,5 5 3 NNE 1021,4 10 0,0
05.04.2020 22:00:00 11,0 9,0 9 5 NE - 10 -
05.04.2020 21:00:00 12,0 8,0 11 6 NE - 10 -
05.04.2020 20:00:00 14,2 5,7 16 9 NE 1019,8 10 -
05.04.2020 19:00:00 17,0 2,0 26 14 NE - 10 -
05.04.2020 18:00:00 19,0 3,0 34 18 NE - 10 -
05.04.2020 17:00:00 19,3 1,6 28 15 NNE 1018,7 10 0,0
05.04.2020 16:00:00 20,0 1,0 26 14 NNE - 10 -
05.04.2020 15:00:00 20,0 3,0 22 12 NNE - 10 -
05.04.2020 14:00:00 20,2 -0,8 22 12 NNE 1019,8 10 -
05.04.2020 13:00:00 20,0 1,0 22 12 ENE - 10 -
05.04.2020 12:00:00 19,0 0,0 28 15 ENE - 10 -
05.04.2020 11:00:00 17,0 4,6 11 6 ENE 1021,2 10 0,0
05.04.2020 10:00:00 14,0 7,0 4 2 - - 10 -
05.04.2020 09:00:00 9,0 6,0 4 2 - - 10 -
05.04.2020 08:00:00 4,2 3,3 4 2 - 1021,2 10 -
05.04.2020 07:00:00 4,0 3,0 5 3 NNE - 10 -
05.04.2020 06:00:00 4,0 3,0 5 3 NE - 10 -
05.04.2020 05:00:00 4,0 2,9 4 2 ENE 1020,5 10 0,0
05.04.2020 04:00:00 5,0 4,0 2 1 - - 10 -
05.04.2020 03:00:00 6,0 5,0 8 4 NNE - 10 -
05.04.2020 02:00:00 6,9 6,6 4 2 N 1021,2 4,0 -
05.04.2020 01:00:00 8,0 7,0 2 1 N - 10 -
05.04.2020 00:00:00 8,0 7,0 2 1 - - 8 -
04.04.2020 23:00:00 9,9 9,0 2 1 - 1020,8 10 0,0
04.04.2020 22:00:00 11,0 9,0 4 2 - - 10 -
04.04.2020 21:00:00 11,0 7,0 9 5 NNE - 10 -
04.04.2020 20:00:00 13,2 5,9 13 7 NNE 1019,1 10 -
04.04.2020 19:00:00 17,0 2,0 24 13 NNE - 10 -
04.04.2020 18:00:00 18,0 3,0 21 11 NNE - 10 -
04.04.2020 17:00:00 18,8 1,6 22 12 NE 1018,0 10 0,0
04.04.2020 16:00:00 19,0 2,0 22 12 NNE - 10 -
04.04.2020 15:00:00 19,0 5,0 26 14 NE - 10 -
04.04.2020 14:00:00 18,8 1,9 26 14 NE 1018,5 10 -
04.04.2020 13:00:00 18,0 4,0 24 13 NE - 10 -
04.04.2020 12:00:00 17,0 8,0 11 6 NE - 10 -
04.04.2020 11:00:00 15,3 10,4 8 4 ENE 1019,1 10 0,0
04.04.2020 10:00:00 12,0 10,0 2 1 - - 10 -
04.04.2020 09:00:00 7,0 7,0 5 3 NE - 10 -
04.04.2020 08:00:00 4,9 4,6 5 3 ENE 1017,5 10 -
04.04.2020 07:00:00 4,0 4,0 8 4 NNE - 10 -
04.04.2020 06:00:00 4,0 3,0 2 1 - - 10 -
04.04.2020 05:00:00 4,8 4,4 4 2 NE 1016,3 30 0,0
04.04.2020 04:00:00 6,0 5,0 5 3 NE - 10 -
04.04.2020 03:00:00 5,0 4,0 4 2 N - 10 -

tt = Temperatura
td = dewpoint
ff = velocità del vento
dd = direzione del vento
ppp = reduced air pressure
vv = visibility
rr = precipitazioni

Stazioni seguenti

WeatherPro
AMSI
MeteoEarth